Location: Saint-Hippolyte
(43.6394°N, 4.7559°E)
Time: 16:06:26
(UTC+00:00)

Cosmos 1340 - Pass Details

Date: 24 October 2020
Orbit: 501 x 504 km, 81.2° (Epoch: 24 November)

Event Time Altitude Azimuth Distance (km) Brightness Sun altitude
Rises 18:56:45 0° 340° (NNW) 2,614 6.6 -24.9°
Reaches altitude 10° 18:59:01 10° 330° (NNW) 1,724 5.8 -25.3°
Maximum altitude 19:02:24 31° 267° (W) 898 4.4 -25.9°
Enters shadow 19:05:40 11° 204° (SSW) 1,681 5.4 -26.5°
